Volver al catálogo

SHIYAN 27D

ActivoCienciaSSO
NORAD 63602·PAYLOAD·🇨🇳 China

Lanzado Apr 18, 2025 desde Taiyuan Satellite Launch Center

Loading…

Próximos Pases (próximas 24 horas)

TLE

ActualizadoSource: Space-Track

Época: Sep 14, 2026, 13:34 UTC

1 63602U 25078D   26257.56544632 -.00000014  00000-0  42511-4 0  9999
2 63602  99.6970 263.5031 0001030  91.9976 268.1280 13.57245822 69656

Sigue SHIYAN 27D en tiempo real con AllMySat

Download on the App Store